Tracking 21076 objects as of 9-Aug-2020
HD Live streaming from Space Station
objects crossing your sky now
Track the most recent launched group of Starlink satellites

MOVE-IIB

Track MOVE-IIB now!
10-day predictions
MOVE-IIB is classified as:


NORAD ID: 44398
Int'l Code: 2019-038N
Perigee: 519.5 km
Apogee: 552.5 km
Inclination: 97.5 °
Period: 95.2 minutes
Semi major axis: 6906 km
RCS: Unknown
Launch date: July 5, 2019
Source: (TBD)
Launch site: VOSTOCHNY COSMODROME (VOSTO)

Uplink (MHz):
Downlink (MHz): 145.840
Beacon (MHz):
Mode: 12k5bps QPSK
Call sign:
Status: Unknown

aabbcc
Your satellite tracking list
Your tracking list is empty




NASA's NSSDC Master Catalog

Two Line Element Set (TLE):
1 44398U 19038N   20221.88766490 +.00001174 +00000-0 +71001-4 0  9990
2 44398 097.5395 182.4635 0023903 309.9083 050.0046 15.12420232060504
Source of the keplerian elements: AFSPC